owner,sensor,date,latitude,longitude,sea_surface_height_above_sea_level,qcFlag 
COMPS,ioos:station:USF.COMPS:ARP:1,2017-08-01T00:00:00Z,28.4330,-82.6670,-9.952,1111122 
COMPS,ioos:station:USF.COMPS:ARP:1,2017-08-01T00:06:00Z,28.4330,-82.6670,-9.94,1111122 
COMPS,ioos:station:USF.COMPS:ARP:1,2017-08-01T00:12:00Z,28.4330,-82.6670,-9.927,1111122 
COMPS,ioos:station:USF.COMPS:ARP:1,2017-08-01T00:18:00Z,28.4330,-82.6670,-9.918,1111122 
COMPS,ioos:station:USF.COMPS:ARP:1,2017-08-01T00:24:00Z,28.4330,-82.6670,-9.91,1111122 
COMPS,ioos:station:USF.COMPS:ARP:1,2017-08-01T00:30:00Z,28.4330,-82.6670,-9.903,1111122 
COMPS,ioos:station:USF.COMPS:ARP:1,2017-08-01T00:36:00Z,28.4330,-82.6670,-9.903,1111122 
COMPS,ioos:station:USF.COMPS:ARP:1,2017-08-01T00:42:00Z,28.4330,-82.6670,-9.901,1111122 
COMPS,ioos:station:USF.COMPS:ARP:1,2017-08-01T00:48:00Z,28.4330,-82.6670,-9.9,1111122 
COMPS,ioos:station:USF.COMPS:ARP:1,2017-08-01T00:54:00Z,28.4330,-82.6670,-9.901,1111122 
COMPS,ioos:station:USF.COMPS:ARP:1,2017-08-01T01:00:00Z,28.4330,-82.6670,-9.906,1111122 
COMPS,ioos:station:USF.COMPS:ARP:1,2017-08-01T01:06:00Z,28.4330,-82.6670,-9.909,1111122 
COMPS,ioos:station:USF.COMPS:ARP:1,2017-08-01T01:12:00Z,28.4330,-82.6670,-9.918,1111122 
COMPS,ioos:station:USF.COMPS:ARP:1,2017-08-01T01:18:00Z,28.4330,-82.6670,-9.922,1111122 
COMPS,ioos:station:USF.COMPS:ARP:1,2017-08-01T01:24:00Z,28.4330,-82.6670,-9.924,1111122 
COMPS,ioos:station:USF.COMPS:ARP:1,2017-08-01T01:30:00Z,28.4330,-82.6670,-9.932,1111122 
COMPS,ioos:station:USF.COMPS:ARP:1,2017-08-01T01:36:00Z,28.4330,-82.6670,-9.937,1111122 
COMPS,ioos:station:USF.COMPS:ARP:1,2017-08-01T01:42:00Z,28.4330,-82.6670,-9.94,1111122 
COMPS,ioos:station:USF.COMPS:ARP:1,2017-08-01T01:48:00Z,28.4330,-82.6670,-9.937,1111122 
COMPS,ioos:station:USF.COMPS:ARP:1,2017-08-01T01:54:00Z,28.4330,-82.6670,-9.938,1111122 
COMPS,ioos:station:USF.COMPS:ARP:1,2017-08-01T02:00:00Z,28.4330,-82.6670,-9.938,1111122 
COMPS,ioos:station:USF.COMPS:ARP:1,2017-08-01T02:06:00Z,28.4330,-82.6670,-9.928,1111122 
COMPS,ioos:station:USF.COMPS:ARP:1,2017-08-01T02:12:00Z,28.4330,-82.6670,-9.929,1111122 
COMPS,ioos:station:USF.COMPS:ARP:1,2017-08-01T02:18:00Z,28.4330,-82.6670,-9.935,1111122 
COMPS,ioos:station:USF.COMPS:ARP:1,2017-08-01T02:24:00Z,28.4330,-82.6670,-9.944,1111122 
COMPS,ioos:station:USF.COMPS:ARP:1,2017-08-01T02:30:00Z,28.4330,-82.6670,-9.959,1111122 
COMPS,ioos:station:USF.COMPS:ARP:1,2017-08-01T02:36:00Z,28.4330,-82.6670,-9.975,1111122 
COMPS,ioos:station:USF.COMPS:ARP:1,2017-08-01T02:42:00Z,28.4330,-82.6670,-9.985,1111122 
COMPS,ioos:station:USF.COMPS:ARP:1,2017-08-01T02:48:00Z,28.4330,-82.6670,-9.999,1111122 
COMPS,ioos:station:USF.COMPS:ARP:1,2017-08-01T09:06:00Z,28.4330,-82.6670,-9.995,1111122 
COMPS,ioos:station:USF.COMPS:ARP:1,2017-08-01T09:12:00Z,28.4330,-82.6670,-9.985,1111122 
COMPS,ioos:station:USF.COMPS:ARP:1,2017-08-01T09:18:00Z,28.4330,-82.6670,-9.972,1111122 
COMPS,ioos:station:USF.COMPS:ARP:1,2017-08-01T09:24:00Z,28.4330,-82.6670,-9.957,1111122 
COMPS,ioos:station:USF.COMPS:ARP:1,2017-08-01T09:30:00Z,28.4330,-82.6670,-9.944,1111122 
COMPS,ioos:station:USF.COMPS:ARP:1,2017-08-01T09:36:00Z,28.4330,-82.6670,-9.933,1111122 
COMPS,ioos:station:USF.COMPS:ARP:1,2017-08-01T09:42:00Z,28.4330,-82.6670,-9.922,1111122 
COMPS,ioos:station:USF.COMPS:ARP:1,2017-08-01T09:48:00Z,28.4330,-82.6670,-9.909,1111122 
COMPS,ioos:station:USF.COMPS:ARP:1,2017-08-01T09:54:00Z,28.4330,-82.6670,-9.896,1111122 
COMPS,ioos:station:USF.COMPS:ARP:1,2017-08-01T10:00:00Z,28.4330,-82.6670,-9.882,1111122 
COMPS,ioos:station:USF.COMPS:ARP:1,2017-08-01T10:06:00Z,28.4330,-82.6670,-9.864,1111122 
COMPS,ioos:station:USF.COMPS:ARP:1,2017-08-01T10:12:00Z,28.4330,-82.6670,-9.849,1111122 
COMPS,ioos:station:USF.COMPS:ARP:1,2017-08-01T10:18:00Z,28.4330,-82.6670,-9.833,1111122 
COMPS,ioos:station:USF.COMPS:ARP:1,2017-08-01T10:24:00Z,28.4330,-82.6670,-9.819,1111122 
COMPS,ioos:station:USF.COMPS:ARP:1,2017-08-01T10:30:00Z,28.4330,-82.6670,-9.807,1111122 
COMPS,ioos:station:USF.COMPS:ARP:1,2017-08-01T10:36:00Z,28.4330,-82.6670,-9.795,1111122 
COMPS,ioos:station:USF.COMPS:ARP:1,2017-08-01T10:42:00Z,28.4330,-82.6670,-9.783,1111122 
COMPS,ioos:station:USF.COMPS:ARP:1,2017-08-01T10:48:00Z,28.4330,-82.6670,-9.773,1111122 
COMPS,ioos:station:USF.COMPS:ARP:1,2017-08-01T10:54:00Z,28.4330,-82.6670,-9.758,1111122 
COMPS,ioos:station:USF.COMPS:ARP:1,2017-08-01T11:00:00Z,28.4330,-82.6670,-9.744,1111122 
COMPS,ioos:station:USF.COMPS:ARP:1,2017-08-01T11:06:00Z,28.4330,-82.6670,-9.73,1111122 
COMPS,ioos:station:USF.COMPS:ARP:1,2017-08-01T11:12:00Z,28.4330,-82.6670,-9.716,1111122 
COMPS,ioos:station:USF.COMPS:ARP:1,2017-08-01T11:18:00Z,28.4330,-82.6670,-9.703,1111122 
COMPS,ioos:station:USF.COMPS:ARP:1,2017-08-01T11:24:00Z,28.4330,-82.6670,-9.689,1111122 
COMPS,ioos:station:USF.COMPS:ARP:1,2017-08-01T11:30:00Z,28.4330,-82.6670,-9.677,1111122 
COMPS,ioos:station:USF.COMPS:ARP:1,2017-08-01T11:36:00Z,28.4330,-82.6670,-9.665,1111122 
COMPS,ioos:station:USF.COMPS:ARP:1,2017-08-01T11:42:00Z,28.4330,-82.6670,-9.656,1111122 
COMPS,ioos:station:USF.COMPS:ARP:1,2017-08-01T11:48:00Z,28.4330,-82.6670,-9.647,1111122 
COMPS,ioos:station:USF.COMPS:ARP:1,2017-08-01T11:54:00Z,28.4330,-82.6670,-9.637,1111122 
COMPS,ioos:station:USF.COMPS:ARP:1,2017-08-01T12:00:00Z,28.4330,-82.6670,-9.628,1111122 
COMPS,ioos:station:USF.COMPS:ARP:1,2017-08-01T12:06:00Z,28.4330,-82.6670,-9.617,1111122 
COMPS,ioos:station:USF.COMPS:ARP:1,2017-08-01T12:12:00Z,28.4330,-82.6670,-9.607,1111122 
COMPS,ioos:station:USF.COMPS:ARP:1,2017-08-01T12:18:00Z,28.4330,-82.6670,-9.602,1111122 
COMPS,ioos:station:USF.COMPS:ARP:1,2017-08-01T12:24:00Z,28.4330,-82.6670,-9.597,1111122 
COMPS,ioos:station:USF.COMPS:ARP:1,2017-08-01T12:30:00Z,28.4330,-82.6670,-9.595,1111122 
COMPS,ioos:station:USF.COMPS:ARP:1,2017-08-01T12:36:00Z,28.4330,-82.6670,-9.592,1111122 
COMPS,ioos:station:USF.COMPS:ARP:1,2017-08-01T12:42:00Z,28.4330,-82.6670,-9.593,1111122 
COMPS,ioos:station:USF.COMPS:ARP:1,2017-08-01T12:48:00Z,28.4330,-82.6670,-9.596,1111122 
COMPS,ioos:station:USF.COMPS:ARP:1,2017-08-01T12:54:00Z,28.4330,-82.6670,-9.599,1111122 
COMPS,ioos:station:USF.COMPS:ARP:1,2017-08-01T13:00:00Z,28.4330,-82.6670,-9.595,1111122 
COMPS,ioos:station:USF.COMPS:ARP:1,2017-08-01T13:06:00Z,28.4330,-82.6670,-9.599,1111122 
COMPS,ioos:station:USF.COMPS:ARP:1,2017-08-01T13:12:00Z,28.4330,-82.6670,-9.593,1111122 
COMPS,ioos:station:USF.COMPS:ARP:1,2017-08-01T13:18:00Z,28.4330,-82.6670,-9.593,1111122 
COMPS,ioos:station:USF.COMPS:ARP:1,2017-08-01T13:24:00Z,28.4330,-82.6670,-9.589,1111122 
COMPS,ioos:station:USF.COMPS:ARP:1,2017-08-01T13:30:00Z,28.4330,-82.6670,-9.59,1111122 
COMPS,ioos:station:USF.COMPS:ARP:1,2017-08-01T13:36:00Z,28.4330,-82.6670,-9.599,1111122 
COMPS,ioos:station:USF.COMPS:ARP:1,2017-08-01T13:42:00Z,28.4330,-82.6670,-9.609,1111122 
COMPS,ioos:station:USF.COMPS:ARP:1,2017-08-01T13:48:00Z,28.4330,-82.6670,-9.62,1111122 
COMPS,ioos:station:USF.COMPS:ARP:1,2017-08-01T13:54:00Z,28.4330,-82.6670,-9.631,1111122 
COMPS,ioos:station:USF.COMPS:ARP:1,2017-08-01T14:00:00Z,28.4330,-82.6670,-9.634,1111122 
COMPS,ioos:station:USF.COMPS:ARP:1,2017-08-01T14:06:00Z,28.4330,-82.6670,-9.64,1111122 
COMPS,ioos:station:USF.COMPS:ARP:1,2017-08-01T14:12:00Z,28.4330,-82.6670,-9.647,1111122 
COMPS,ioos:station:USF.COMPS:ARP:1,2017-08-01T14:18:00Z,28.4330,-82.6670,-9.644,1111122 
COMPS,ioos:station:USF.COMPS:ARP:1,2017-08-01T14:24:00Z,28.4330,-82.6670,-9.646,1111122 
COMPS,ioos:station:USF.COMPS:ARP:1,2017-08-01T14:30:00Z,28.4330,-82.6670,-9.65,1111122 
COMPS,ioos:station:USF.COMPS:ARP:1,2017-08-01T14:36:00Z,28.4330,-82.6670,-9.657,1111122 
COMPS,ioos:station:USF.COMPS:ARP:1,2017-08-01T14:42:00Z,28.4330,-82.6670,-9.673,1111122 
COMPS,ioos:station:USF.COMPS:ARP:1,2017-08-01T14:48:00Z,28.4330,-82.6670,-9.678,1111122 
COMPS,ioos:station:USF.COMPS:ARP:1,2017-08-01T14:54:00Z,28.4330,-82.6670,-9.693,1111122 
COMPS,ioos:station:USF.COMPS:ARP:1,2017-08-01T15:00:00Z,28.4330,-82.6670,-9.702,1111122 
COMPS,ioos:station:USF.COMPS:ARP:1,2017-08-01T15:06:00Z,28.4330,-82.6670,-9.715,1111122 
COMPS,ioos:station:USF.COMPS:ARP:1,2017-08-01T15:12:00Z,28.4330,-82.6670,-9.727,1111122 
COMPS,ioos:station:USF.COMPS:ARP:1,2017-08-01T15:18:00Z,28.4330,-82.6670,-9.739,1111122 
COMPS,ioos:station:USF.COMPS:ARP:1,2017-08-01T15:24:00Z,28.4330,-82.6670,-9.743,1111122 
COMPS,ioos:station:USF.COMPS:ARP:1,2017-08-01T15:30:00Z,28.4330,-82.6670,-9.751,1111122 
COMPS,ioos:station:USF.COMPS:ARP:1,2017-08-01T15:36:00Z,28.4330,-82.6670,-9.76,1111122 
COMPS,ioos:station:USF.COMPS:ARP:1,2017-08-01T15:42:00Z,28.4330,-82.6670,-9.77,1111122 
COMPS,ioos:station:USF.COMPS:ARP:1,2017-08-01T15:48:00Z,28.4330,-82.6670,-9.783,1111122 
COMPS,ioos:station:USF.COMPS:ARP:1,2017-08-01T15:54:00Z,28.4330,-82.6670,-9.795,1111122 
COMPS,ioos:station:USF.COMPS:ARP:1,2017-08-01T16:00:00Z,28.4330,-82.6670,-9.806,1111122 
COMPS,ioos:station:USF.COMPS:ARP:1,2017-08-01T16:06:00Z,28.4330,-82.6670,-9.816,1111122 
COMPS,ioos:station:USF.COMPS:ARP:1,2017-08-01T16:12:00Z,28.4330,-82.6670,-9.826,1111122 
COMPS,ioos:station:USF.COMPS:ARP:1,2017-08-01T16:18:00Z,28.4330,-82.6670,-9.84,1111122 
COMPS,ioos:station:USF.COMPS:ARP:1,2017-08-01T16:24:00Z,28.4330,-82.6670,-9.851,1111122 
COMPS,ioos:station:USF.COMPS:ARP:1,2017-08-01T16:30:00Z,28.4330,-82.6670,-9.865,1111122 
COMPS,ioos:station:USF.COMPS:ARP:1,2017-08-01T16:36:00Z,28.4330,-82.6670,-9.881,1111122 
COMPS,ioos:station:USF.COMPS:ARP:1,2017-08-01T16:42:00Z,28.4330,-82.6670,-9.895,1111122 
COMPS,ioos:station:USF.COMPS:ARP:1,2017-08-01T16:48:00Z,28.4330,-82.6670,-9.909,1111122 
COMPS,ioos:station:USF.COMPS:ARP:1,2017-08-01T16:54:00Z,28.4330,-82.6670,-9.923,1111122 
COMPS,ioos:station:USF.COMPS:ARP:1,2017-08-01T17:00:00Z,28.4330,-82.6670,-9.937,1111122 
COMPS,ioos:station:USF.COMPS:ARP:1,2017-08-01T17:06:00Z,28.4330,-82.6670,-9.953,1111122 
COMPS,ioos:station:USF.COMPS:ARP:1,2017-08-01T17:12:00Z,28.4330,-82.6670,-9.968,1111122 
COMPS,ioos:station:USF.COMPS:ARP:1,2017-08-01T17:18:00Z,28.4330,-82.6670,-9.983,1111122 
COMPS,ioos:station:USF.COMPS:ARP:1,2017-08-01T17:24:00Z,28.4330,-82.6670,-9.996,1111122 
COMPS,ioos:station:USF.COMPS:ARP:1,2017-08-01T23:42:00Z,28.4330,-82.6670,-9.998,1111122 
COMPS,ioos:station:USF.COMPS:ARP:1,2017-08-01T23:48:00Z,28.4330,-82.6670,-9.983,1111122 
COMPS,ioos:station:USF.COMPS:ARP:1,2017-08-01T23:54:00Z,28.4330,-82.6670,-9.969,1111122 
COMPS,ioos:station:USF.COMPS:ARP:1,2017-08-02T00:00:00Z,28.4330,-82.6670,-9.955,1111122 
COMPS,ioos:station:USF.COMPS:ARP:1,2017-08-02T00:06:00Z,28.4330,-82.6670,-9.941,1111122 
COMPS,ioos:station:USF.COMPS:ARP:1,2017-08-02T00:12:00Z,28.4330,-82.6670,-9.93,1111122 
COMPS,ioos:station:USF.COMPS:ARP:1,2017-08-02T00:18:00Z,28.4330,-82.6670,-9.918,1111122 
COMPS,ioos:station:USF.COMPS:ARP:1,2017-08-02T00:24:00Z,28.4330,-82.6670,-9.905,1111122 
COMPS,ioos:station:USF.COMPS:ARP:1,2017-08-02T00:30:00Z,28.4330,-82.6670,-9.894,1111122 
COMPS,ioos:station:USF.COMPS:ARP:1,2017-08-02T00:36:00Z,28.4330,-82.6670,-9.883,1111122 
COMPS,ioos:station:USF.COMPS:ARP:1,2017-08-02T00:42:00Z,28.4330,-82.6670,-9.87,1111122 
COMPS,ioos:station:USF.COMPS:ARP:1,2017-08-02T00:48:00Z,28.4330,-82.6670,-9.859,1111122 
COMPS,ioos:station:USF.COMPS:ARP:1,2017-08-02T00:54:00Z,28.4330,-82.6670,-9.848,1111122 
COMPS,ioos:station:USF.COMPS:ARP:1,2017-08-02T01:00:00Z,28.4330,-82.6670,-9.837,1111122 
COMPS,ioos:station:USF.COMPS:ARP:1,2017-08-02T01:06:00Z,28.4330,-82.6670,-9.827,1111122 
COMPS,ioos:station:USF.COMPS:ARP:1,2017-08-02T01:12:00Z,28.4330,-82.6670,-9.817,1111122 
COMPS,ioos:station:USF.COMPS:ARP:1,2017-08-02T01:18:00Z,28.4330,-82.6670,-9.807,1111122 
COMPS,ioos:station:USF.COMPS:ARP:1,2017-08-02T01:24:00Z,28.4330,-82.6670,-9.798,1111122 
COMPS,ioos:station:USF.COMPS:ARP:1,2017-08-02T01:30:00Z,28.4330,-82.6670,-9.791,1111122 
COMPS,ioos:station:USF.COMPS:ARP:1,2017-08-02T01:36:00Z,28.4330,-82.6670,-9.782,1111122 
COMPS,ioos:station:USF.COMPS:ARP:1,2017-08-02T01:42:00Z,28.4330,-82.6670,-9.772,1111122 
COMPS,ioos:station:USF.COMPS:ARP:1,2017-08-02T01:48:00Z,28.4330,-82.6670,-9.763,1111122 
COMPS,ioos:station:USF.COMPS:ARP:1,2017-08-02T01:54:00Z,28.4330,-82.6670,-9.754,1111122 
COMPS,ioos:station:USF.COMPS:ARP:1,2017-08-02T02:00:00Z,28.4330,-82.6670,-9.741,1111122 
COMPS,ioos:station:USF.COMPS:ARP:1,2017-08-02T02:06:00Z,28.4330,-82.6670,-9.734,1111122 
COMPS,ioos:station:USF.COMPS:ARP:1,2017-08-02T02:12:00Z,28.4330,-82.6670,-9.723,1111122 
COMPS,ioos:station:USF.COMPS:ARP:1,2017-08-02T02:18:00Z,28.4330,-82.6670,-9.706,1111122 
COMPS,ioos:station:USF.COMPS:ARP:1,2017-08-02T02:24:00Z,28.4330,-82.6670,-9.7,1111122 
COMPS,ioos:station:USF.COMPS:ARP:1,2017-08-02T02:30:00Z,28.4330,-82.6670,-9.69,1111122 
COMPS,ioos:station:USF.COMPS:ARP:1,2017-08-02T02:36:00Z,28.4330,-82.6670,-9.681,1111122 
COMPS,ioos:station:USF.COMPS:ARP:1,2017-08-02T02:42:00Z,28.4330,-82.6670,-9.677,1111122 
COMPS,ioos:station:USF.COMPS:ARP:1,2017-08-02T02:48:00Z,28.4330,-82.6670,-9.67,1111122 
COMPS,ioos:station:USF.COMPS:ARP:1,2017-08-02T02:54:00Z,28.4330,-82.6670,-9.669,1111122 
COMPS,ioos:station:USF.COMPS:ARP:1,2017-08-02T03:00:00Z,28.4330,-82.6670,-9.673,1111122 
COMPS,ioos:station:USF.COMPS:ARP:1,2017-08-02T03:06:00Z,28.4330,-82.6670,-9.672,1111122 
COMPS,ioos:station:USF.COMPS:ARP:1,2017-08-02T03:12:00Z,28.4330,-82.6670,-9.669,1111122 
COMPS,ioos:station:USF.COMPS:ARP:1,2017-08-02T03:18:00Z,28.4330,-82.6670,-9.672,1111122 
COMPS,ioos:station:USF.COMPS:ARP:1,2017-08-02T03:24:00Z,28.4330,-82.6670,-9.676,1111122 
COMPS,ioos:station:USF.COMPS:ARP:1,2017-08-02T03:30:00Z,28.4330,-82.6670,-9.67,1111122 
COMPS,ioos:station:USF.COMPS:ARP:1,2017-08-02T03:36:00Z,28.4330,-82.6670,-9.668,1111122 
COMPS,ioos:station:USF.COMPS:ARP:1,2017-08-02T03:42:00Z,28.4330,-82.6670,-9.674,1111122 
COMPS,ioos:station:USF.COMPS:ARP:1,2017-08-02T03:48:00Z,28.4330,-82.6670,-9.692,1111122 
COMPS,ioos:station:USF.COMPS:ARP:1,2017-08-02T03:54:00Z,28.4330,-82.6670,-9.705,1111122 
COMPS,ioos:station:USF.COMPS:ARP:1,2017-08-02T04:00:00Z,28.4330,-82.6670,-9.72,1111122 
COMPS,ioos:station:USF.COMPS:ARP:1,2017-08-02T04:06:00Z,28.4330,-82.6670,-9.729,1111122 
COMPS,ioos:station:USF.COMPS:ARP:1,2017-08-02T04:12:00Z,28.4330,-82.6670,-9.745,1111122 
COMPS,ioos:station:USF.COMPS:ARP:1,2017-08-02T04:18:00Z,28.4330,-82.6670,-9.758,1111122 
COMPS,ioos:station:USF.COMPS:ARP:1,2017-08-02T04:24:00Z,28.4330,-82.6670,-9.773,1111122 
COMPS,ioos:station:USF.COMPS:ARP:1,2017-08-02T04:30:00Z,28.4330,-82.6670,-9.785,1111122 
COMPS,ioos:station:USF.COMPS:ARP:1,2017-08-02T04:36:00Z,28.4330,-82.6670,-9.799,1111122 
COMPS,ioos:station:USF.COMPS:ARP:1,2017-08-02T04:42:00Z,28.4330,-82.6670,-9.811,1111122 
COMPS,ioos:station:USF.COMPS:ARP:1,2017-08-02T04:48:00Z,28.4330,-82.6670,-9.823,1111122 
COMPS,ioos:station:USF.COMPS:ARP:1,2017-08-02T04:54:00Z,28.4330,-82.6670,-9.836,1111122 
COMPS,ioos:station:USF.COMPS:ARP:1,2017-08-02T05:00:00Z,28.4330,-82.6670,-9.845,1111122 
COMPS,ioos:station:USF.COMPS:ARP:1,2017-08-02T05:06:00Z,28.4330,-82.6670,-9.854,1111122 
COMPS,ioos:station:USF.COMPS:ARP:1,2017-08-02T05:12:00Z,28.4330,-82.6670,-9.864,1111122 
COMPS,ioos:station:USF.COMPS:ARP:1,2017-08-02T05:18:00Z,28.4330,-82.6670,-9.87,1111122 
COMPS,ioos:station:USF.COMPS:ARP:1,2017-08-02T05:24:00Z,28.4330,-82.6670,-9.874,1111122 
COMPS,ioos:station:USF.COMPS:ARP:1,2017-08-02T05:30:00Z,28.4330,-82.6670,-9.875,1111122 
COMPS,ioos:station:USF.COMPS:ARP:1,2017-08-02T05:36:00Z,28.4330,-82.6670,-9.88,1111122 
COMPS,ioos:station:USF.COMPS:ARP:1,2017-08-02T05:42:00Z,28.4330,-82.6670,-9.879,1111122 
COMPS,ioos:station:USF.COMPS:ARP:1,2017-08-02T05:48:00Z,28.4330,-82.6670,-9.879,1111122 
COMPS,ioos:station:USF.COMPS:ARP:1,2017-08-02T05:54:00Z,28.4330,-82.6670,-9.872,1111122 
COMPS,ioos:station:USF.COMPS:ARP:1,2017-08-02T06:00:00Z,28.4330,-82.6670,-9.87,1111122 
COMPS,ioos:station:USF.COMPS:ARP:1,2017-08-02T06:06:00Z,28.4330,-82.6670,-9.861,1111122 
COMPS,ioos:station:USF.COMPS:ARP:1,2017-08-02T06:12:00Z,28.4330,-82.6670,-9.866,1111122 
COMPS,ioos:station:USF.COMPS:ARP:1,2017-08-02T06:18:00Z,28.4330,-82.6670,-9.876,1111122 
COMPS,ioos:station:USF.COMPS:ARP:1,2017-08-02T06:24:00Z,28.4330,-82.6670,-9.88,1111122 
COMPS,ioos:station:USF.COMPS:ARP:1,2017-08-02T06:30:00Z,28.4330,-82.6670,-9.887,1111122 
COMPS,ioos:station:USF.COMPS:ARP:1,2017-08-02T06:36:00Z,28.4330,-82.6670,-9.895,1111122 
COMPS,ioos:station:USF.COMPS:ARP:1,2017-08-02T06:42:00Z,28.4330,-82.6670,-9.907,1111122 
COMPS,ioos:station:USF.COMPS:ARP:1,2017-08-02T06:48:00Z,28.4330,-82.6670,-9.908,1111122 
COMPS,ioos:station:USF.COMPS:ARP:1,2017-08-02T06:54:00Z,28.4330,-82.6670,-9.904,1111122 
COMPS,ioos:station:USF.COMPS:ARP:1,2017-08-02T07:00:00Z,28.4330,-82.6670,-9.902,1111122 
COMPS,ioos:station:USF.COMPS:ARP:1,2017-08-02T07:06:00Z,28.4330,-82.6670,-9.893,1111122 
COMPS,ioos:station:USF.COMPS:ARP:1,2017-08-02T07:12:00Z,28.4330,-82.6670,-9.88,1111122 
COMPS,ioos:station:USF.COMPS:ARP:1,2017-08-02T07:18:00Z,28.4330,-82.6670,-9.865,1111122 
COMPS,ioos:station:USF.COMPS:ARP:1,2017-08-02T07:24:00Z,28.4330,-82.6670,-9.853,1111122 
COMPS,ioos:station:USF.COMPS:ARP:1,2017-08-02T07:30:00Z,28.4330,-82.6670,-9.845,1111122 
COMPS,ioos:station:USF.COMPS:ARP:1,2017-08-02T07:36:00Z,28.4330,-82.6670,-9.844,1111122 
COMPS,ioos:station:USF.COMPS:ARP:1,2017-08-02T07:42:00Z,28.4330,-82.6670,-9.847,1111122 
COMPS,ioos:station:USF.COMPS:ARP:1,2017-08-02T07:48:00Z,28.4330,-82.6670,-9.856,1111122 
COMPS,ioos:station:USF.COMPS:ARP:1,2017-08-02T07:54:00Z,28.4330,-82.6670,-9.858,1111122 
COMPS,ioos:station:USF.COMPS:ARP:1,2017-08-02T08:00:00Z,28.4330,-82.6670,-9.862,1111122 
COMPS,ioos:station:USF.COMPS:ARP:1,2017-08-02T08:06:00Z,28.4330,-82.6670,-9.875,1111122 
COMPS,ioos:station:USF.COMPS:ARP:1,2017-08-02T08:12:00Z,28.4330,-82.6670,-9.878,1111122 
COMPS,ioos:station:USF.COMPS:ARP:1,2017-08-02T08:18:00Z,28.4330,-82.6670,-9.885,1111122 
COMPS,ioos:station:USF.COMPS:ARP:1,2017-08-02T08:24:00Z,28.4330,-82.6670,-9.896,1111122 
COMPS,ioos:station:USF.COMPS:ARP:1,2017-08-02T08:30:00Z,28.4330,-82.6670,-9.913,1111122 
COMPS,ioos:station:USF.COMPS:ARP:1,2017-08-02T08:36:00Z,28.4330,-82.6670,-9.929,1111122 
COMPS,ioos:station:USF.COMPS:ARP:1,2017-08-02T08:42:00Z,28.4330,-82.6670,-9.943,1111122 
COMPS,ioos:station:USF.COMPS:ARP:1,2017-08-02T08:48:00Z,28.4330,-82.6670,-9.947,1111122 
COMPS,ioos:station:USF.COMPS:ARP:1,2017-08-02T08:54:00Z,28.4330,-82.6670,-9.943,1111122 
COMPS,ioos:station:USF.COMPS:ARP:1,2017-08-02T09:00:00Z,28.4330,-82.6670,-9.944,1111122 
COMPS,ioos:station:USF.COMPS:ARP:1,2017-08-02T09:06:00Z,28.4330,-82.6670,-9.937,1111122 
COMPS,ioos:station:USF.COMPS:ARP:1,2017-08-02T09:12:00Z,28.4330,-82.6670,-9.919,1111122 
COMPS,ioos:station:USF.COMPS:ARP:1,2017-08-02T09:18:00Z,28.4330,-82.6670,-9.903,1111122 
COMPS,ioos:station:USF.COMPS:ARP:1,2017-08-02T09:24:00Z,28.4330,-82.6670,-9.888,1111122 
COMPS,ioos:station:USF.COMPS:ARP:1,2017-08-02T09:30:00Z,28.4330,-82.6670,-9.865,1111122 
COMPS,ioos:station:USF.COMPS:ARP:1,2017-08-02T09:36:00Z,28.4330,-82.6670,-9.846,1111122 
COMPS,ioos:station:USF.COMPS:ARP:1,2017-08-02T09:42:00Z,28.4330,-82.6670,-9.831,1111122 
COMPS,ioos:station:USF.COMPS:ARP:1,2017-08-02T09:48:00Z,28.4330,-82.6670,-9.816,1111122 
COMPS,ioos:station:USF.COMPS:ARP:1,2017-08-02T09:54:00Z,28.4330,-82.6670,-9.806,1111122 
COMPS,ioos:station:USF.COMPS:ARP:1,2017-08-02T10:00:00Z,28.4330,-82.6670,-9.792,1111122 
COMPS,ioos:station:USF.COMPS:ARP:1,2017-08-02T10:06:00Z,28.4330,-82.6670,-9.783,1111122 
COMPS,ioos:station:USF.COMPS:ARP:1,2017-08-02T10:12:00Z,28.4330,-82.6670,-9.775,1111122 
COMPS,ioos:station:USF.COMPS:ARP:1,2017-08-02T10:18:00Z,28.4330,-82.6670,-9.766,1111122 
COMPS,ioos:station:USF.COMPS:ARP:1,2017-08-02T10:24:00Z,28.4330,-82.6670,-9.756,1111122 
COMPS,ioos:station:USF.COMPS:ARP:1,2017-08-02T10:30:00Z,28.4330,-82.6670,-9.744,1111122 
COMPS,ioos:station:USF.COMPS:ARP:1,2017-08-02T10:36:00Z,28.4330,-82.6670,-9.736,1111122 
COMPS,ioos:station:USF.COMPS:ARP:1,2017-08-02T10:42:00Z,28.4330,-82.6670,-9.722,1111122 
COMPS,ioos:station:USF.COMPS:ARP:1,2017-08-02T10:48:00Z,28.4330,-82.6670,-9.71,1111122 
COMPS,ioos:station:USF.COMPS:ARP:1,2017-08-02T10:54:00Z,28.4330,-82.6670,-9.698,1111122 
COMPS,ioos:station:USF.COMPS:ARP:1,2017-08-02T11:00:00Z,28.4330,-82.6670,-9.683,1111122 
COMPS,ioos:station:USF.COMPS:ARP:1,2017-08-02T11:06:00Z,28.4330,-82.6670,-9.667,1111122 
COMPS,ioos:station:USF.COMPS:ARP:1,2017-08-02T11:12:00Z,28.4330,-82.6670,-9.656,1111122 
COMPS,ioos:station:USF.COMPS:ARP:1,2017-08-02T11:18:00Z,28.4330,-82.6670,-9.643,1111122 
COMPS,ioos:station:USF.COMPS:ARP:1,2017-08-02T11:24:00Z,28.4330,-82.6670,-9.631,1111122 
COMPS,ioos:station:USF.COMPS:ARP:1,2017-08-02T11:30:00Z,28.4330,-82.6670,-9.618,1111122 
COMPS,ioos:station:USF.COMPS:ARP:1,2017-08-02T11:36:00Z,28.4330,-82.6670,-9.604,1111122 
COMPS,ioos:station:USF.COMPS:ARP:1,2017-08-02T11:42:00Z,28.4330,-82.6670,-9.587,1111122 
COMPS,ioos:station:USF.COMPS:ARP:1,2017-08-02T11:48:00Z,28.4330,-82.6670,-9.563,1111122 
COMPS,ioos:station:USF.COMPS:ARP:1,2017-08-02T11:54:00Z,28.4330,-82.6670,-9.549,1111122 
COMPS,ioos:station:USF.COMPS:ARP:1,2017-08-02T12:00:00Z,28.4330,-82.6670,-9.534,1111122 
COMPS,ioos:station:USF.COMPS:ARP:1,2017-08-02T12:06:00Z,28.4330,-82.6670,-9.526,1111122 
COMPS,ioos:station:USF.COMPS:ARP:1,2017-08-02T12:12:00Z,28.4330,-82.6670,-9.516,1111122 
COMPS,ioos:station:USF.COMPS:ARP:1,2017-08-02T12:18:00Z,28.4330,-82.6670,-9.509,1111122 
COMPS,ioos:station:USF.COMPS:ARP:1,2017-08-02T12:24:00Z,28.4330,-82.6670,-9.507,1111122 
COMPS,ioos:station:USF.COMPS:ARP:1,2017-08-02T12:30:00Z,28.4330,-82.6670,-9.503,1111122 
COMPS,ioos:station:USF.COMPS:ARP:1,2017-08-02T12:36:00Z,28.4330,-82.6670,-9.503,1111122 
COMPS,ioos:station:USF.COMPS:ARP:1,2017-08-02T12:42:00Z,28.4330,-82.6670,-9.498,1111122 
COMPS,ioos:station:USF.COMPS:ARP:1,2017-08-02T12:48:00Z,28.4330,-82.6670,-9.496,1111122 
COMPS,ioos:station:USF.COMPS:ARP:1,2017-08-02T12:54:00Z,28.4330,-82.6670,-9.493,1111122 
COMPS,ioos:station:USF.COMPS:ARP:1,2017-08-02T13:00:00Z,28.4330,-82.6670,-9.485,1111122 
COMPS,ioos:station:USF.COMPS:ARP:1,2017-08-02T13:06:00Z,28.4330,-82.6670,-9.477,1111122 
COMPS,ioos:station:USF.COMPS:ARP:1,2017-08-02T13:12:00Z,28.4330,-82.6670,-9.465,1111122 
COMPS,ioos:station:USF.COMPS:ARP:1,2017-08-02T13:18:00Z,28.4330,-82.6670,-9.456,1111122 
COMPS,ioos:station:USF.COMPS:ARP:1,2017-08-02T13:24:00Z,28.4330,-82.6670,-9.417,1111122 
COMPS,ioos:station:USF.COMPS:ARP:1,2017-08-02T13:30:00Z,28.4330,-82.6670,-9.411,1111122 
COMPS,ioos:station:USF.COMPS:ARP:1,2017-08-02T13:36:00Z,28.4330,-82.6670,-9.4,1111122 
COMPS,ioos:station:USF.COMPS:ARP:1,2017-08-02T13:42:00Z,28.4330,-82.6670,-9.385,1111122 
COMPS,ioos:station:USF.COMPS:ARP:1,2017-08-02T13:48:00Z,28.4330,-82.6670,-9.379,1111122 
COMPS,ioos:station:USF.COMPS:ARP:1,2017-08-02T13:54:00Z,28.4330,-82.6670,-9.391,1111122 
COMPS,ioos:station:USF.COMPS:ARP:1,2017-08-02T14:00:00Z,28.4330,-82.6670,-9.387,1111122 
COMPS,ioos:station:USF.COMPS:ARP:1,2017-08-02T14:06:00Z,28.4330,-82.6670,-9.388,1111122 
COMPS,ioos:station:USF.COMPS:ARP:1,2017-08-02T14:12:00Z,28.4330,-82.6670,-9.435,1111122 
COMPS,ioos:station:USF.COMPS:ARP:1,2017-08-02T14:18:00Z,28.4330,-82.6670,-9.459,1111122 
COMPS,ioos:station:USF.COMPS:ARP:1,2017-08-02T14:24:00Z,28.4330,-82.6670,-9.483,1111122 
COMPS,ioos:station:USF.COMPS:ARP:1,2017-08-02T14:30:00Z,28.4330,-82.6670,-9.504,1111122 
COMPS,ioos:station:USF.COMPS:ARP:1,2017-08-02T14:36:00Z,28.4330,-82.6670,-9.504,1111122 
COMPS,ioos:station:USF.COMPS:ARP:1,2017-08-02T14:42:00Z,28.4330,-82.6670,-9.521,1111122 
COMPS,ioos:station:USF.COMPS:ARP:1,2017-08-02T14:48:00Z,28.4330,-82.6670,-9.528,1111122 
COMPS,ioos:station:USF.COMPS:ARP:1,2017-08-02T14:54:00Z,28.4330,-82.6670,-9.512,1111122 
COMPS,ioos:station:USF.COMPS:ARP:1,2017-08-02T15:00:00Z,28.4330,-82.6670,-9.473,1111122 
COMPS,ioos:station:USF.COMPS:ARP:1,2017-08-02T15:06:00Z,28.4330,-82.6670,-9.452,1111122 
COMPS,ioos:station:USF.COMPS:ARP:1,2017-08-02T15:12:00Z,28.4330,-82.6670,-9.442,1111122 